Showing default

COSMOS 1999, 19790

Orbit data source: Space-Track

COSMOS 1999, 19790 is a payload satellite owned by UNKS (CIS) in LEO that was launched on Fri, 10 Feb 1989 UTC via a TSIKLON-3 launch vehicle from the Plesetsk Missile And Space Complex (PKMTR). Payload-class satellites include a variety of spacecraft equipped with specific instruments for various scientific and technological missions. These include communications satellites like Starlink; space stations such as the ISS; scientific satellites like the Hubble; Earth observation satellites from companies like Planet Labs, Umbra, and HawkEye 360; GPS; miniature CubeSats for education and research; and military/defense satellites.

Loading next visibility...
Identifier
19790, 1989-009F
Orbit
LEO
Country
Flag of CISCIS
Related business
Manufacturer
NPO PM
Mission
Defense Communications
Bus & Motor
STRELA-3, Unknown motor
Mass
225 kg wet, 225 kg dry
Launch date (UTC)
1989-02-10 (37 years ago)
Launch vehicle
TSIKLON-3
Launch site
Plesetsk Missile And Space Complex (PKMTR)
Object type
Payload
Rocket body
Debris
Shape & HBR
Cyl, 0.8 m
Radar Cross Section
1.257 m², Medium (>0.1 m² and < 1m²)

Expand to show TLE details & history
Last TLE update: 9 hours ago

TLE from 9 hours ago
0 COSMOS 1999
1 19790U 89009F   26126.15780104  .00000025  00000-0  74226-4 0  9997
2 19790  82.6209 353.5853 0019050 321.3861 158.3002 12.65749506719939
Epoch: 2026-05-06T03:47Z
TLE epoch observation values (Epoch: 2026-05-06T03:47:14.009Z)
Latitude
59.50239°
Longitude
-119.88364°
Altitude
1,423.129 km
Speed
7.148 km/s
True Right ascension
10h 43m 47s
True Declination
59° 21' 53"
Sunlit
Object was in daylight at epoch
Visualization orbit readout
Latitude
Unknown
Longitude
Unknown
Altitude
Unknown
Speed
Unknown
Apparent Right ascension
Unknown
Apparent Declination
Unknown
Sunlit
N/A
Visualization observer readout
Local Sidereal Time
20:14:22
Azimuth
Unknown
Elevation
Unknown
Doppler factor
Unknown
Orbital elements
Apogee altitude
1,411.428 km
Perigee altitude
1,381.806 km
Semi-major axis
7,774.754 km
Eccentricity
0.00191
Inclination
82.6209°
RAAN
353.5853°
Arg. of periapsis
321.3861°
True anomaly
158.38074°
Mean anomaly
158.3002°
Eccentric anomaly
158.34049°
Mean motion
3.16602 °/min
Orbital period
113.71 mins
BSTAR
0.000074226
Loading maneuver chart data...
Computing Atmospheric mass density...
Loading historical data...
Loading historical data...
Loading historical data...
Loading historical data...
Loading historical data...
Loading historical data...
Loading historical data...

Documentation

Showing up to 5 results
|